Location: Hackberry
(29.5783°N, 96.8797°W)
Time: 12:51:07
(UTC+00:00)

Vanguard 2 - Visible Passes

Search period start: 07 November 2024 00:00
Search period end: 17 November 2024 00:00
Orbit: 551 x 2910 km, 32.9° (Epoch: 06 November)

Date Brightness Start Highest point End Pass type
(mag) Time Alt. Az. Time Alt. Az. Time Alt. Az.
07 Nov 11.8 01:25:56 10° W 01:36:29 19° SW 01:45:55 10° S visible
08 Nov 12.0 01:43:13 10° WSW 01:49:51 13° SW 01:56:02 10° SSW visible
08 Nov 11.8 23:38:26 10° W 23:53:01 35° SW 00:07:10 10° SSE visible
09 Nov 11.9 23:53:16 10° W 00:06:29 28° SW 00:19:23 10° S visible
11 Nov 12.0 00:08:42 10° W 00:19:57 21° SW 00:31:00 10° S visible
12 Nov 12.3 00:25:24 10° WSW 00:33:29 15° SW 00:41:29 10° SSW visible
13 Nov 10.3 11:58:09 10° SSE 11:59:42 11° SE 12:01:22 10° ESE visible
14 Nov 9.8 12:09:51 10° S 12:12:57 18° SE 12:16:49 10° E visible
15 Nov 9.5 12:22:33 10° SSW 12:26:18 28° SE 12:31:16 10° E visible
